Date String (YYYY-MM-DD hh:mm:ss) UTC,Instrument flags,Ambient pressure (hPa),Sample flow (lpm),Bypass flow (lpm),Sample temperature (°C),Ambient temperature (°C),ASC tube jacket temperature (°C),LED temperature (°C),Box temperature (°C),Sample RH (%),Span deviation,Mass concentration (μg/m³),Mass concentration (μg/m³),Mass concentration (μg/m³)
DateTimeUTC,F1_M11,P_M11,Q1_M11,Q2_M11,T1_M11,T2_M11,T3_M11,T4_M11,T5_M11,U1_M11,ZSPAN_M11,X2_M11,X0_M11,X1_M11
2021-10-09 09:00:00,,0820.9,5.00,0.00,30.3,29.3,00.0,39.5,32.0,17.8,0000.0,0003.22,0008.77,0002.35
2021-10-09 09:01:00,,0820.9,4.99,0.00,30.3,29.3,00.0,39.5,32.0,17.8,0000.0,0003.18,0008.10,0002.33
2021-10-09 09:02:00,,0820.9,5.01,0.00,30.3,29.3,00.0,39.5,32.0,17.8,0000.0,0003.12,0008.04,0002.28
2021-10-09 09:03:00,,0820.9,5.00,0.00,30.3,29.3,00.0,39.5,32.0,18.1,0000.0,0003.05,0008.20,0002.24
2021-10-09 09:04:00,,0820.9,5.01,0.00,30.3,29.3,00.0,39.5,32.0,18.2,0000.0,0003.10,0008.32,0002.25
2021-10-09 09:05:00,,0820.9,4.98,0.00,30.3,29.3,00.0,39.5,32.0,18.2,0000.0,0003.11,0008.02,0002.25
2021-10-09 09:06:00,,0820.9,5.02,0.00,30.3,29.3,00.0,39.5,32.0,18.0,0000.0,0003.16,0007.97,0002.27
2021-10-09 09:07:00,,0820.9,4.99,0.00,30.3,29.3,00.0,39.5,32.0,17.8,0000.0,0003.14,0007.60,0002.24
2021-10-09 09:08:00,,0820.9,5.00,0.00,30.3,29.3,00.0,39.5,32.0,17.6,0000.0,0003.05,0007.47,0002.17
2021-10-09 09:09:00,,0820.9,4.99,0.00,30.3,29.3,00.0,39.5,32.0,17.9,0000.0,0003.01,0006.58,0002.13
2021-10-09 09:10:00,,0821.0,5.00,0.00,30.3,29.3,00.0,39.5,32.0,17.9,0000.0,0003.03,0006.49,0002.14
2021-10-09 09:11:00,,0820.9,4.99,0.00,30.3,29.3,00.0,39.5,32.0,17.8,0000.0,0003.02,0006.51,0002.15
2021-10-09 09:12:00,,0821.0,5.00,0.00,30.3,29.4,00.0,39.5,32.1,17.8,0000.0,0002.98,0006.44,0002.16
2021-10-09 09:13:00,,0821.0,5.00,0.00,30.3,29.4,00.0,39.5,32.0,17.7,0000.0,0002.98,0005.87,0002.13
2021-10-09 09:14:00,,0820.9,4.99,0.00,30.4,29.4,00.0,39.5,32.1,17.8,0000.0,0003.03,0005.59,0002.11
2021-10-09 09:15:00,,0820.9,5.01,0.00,30.4,29.4,00.0,39.5,32.1,18.0,0000.0,0003.01,0005.43,0002.11
2021-10-09 09:16:00,,0820.9,4.99,0.00,30.4,29.4,00.0,39.5,32.1,18.0,0000.0,0002.95,0005.01,0002.10
2021-10-09 09:17:00,,0820.9,5.01,0.00,30.4,29.4,00.0,39.5,32.0,17.8,0000.0,0002.84,0004.56,0002.08
2021-10-09 09:18:00,,0820.8,5.00,0.00,30.4,29.4,00.0,39.5,32.1,17.7,0000.0,0002.84,0004.66,0002.06
2021-10-09 09:19:00,,0820.8,5.01,0.00,30.4,29.4,00.0,39.5,32.1,17.7,0000.0,0002.88,0004.78,0002.08
2021-10-09 09:20:00,,0820.7,4.99,0.00,30.4,29.4,00.0,39.5,32.1,17.9,0000.0,0002.89,0004.89,0002.10
2021-10-09 09:21:00,,0820.7,5.01,0.00,30.4,29.4,00.0,39.5,32.1,17.9,0000.0,0002.87,0005.96,0002.10
2021-10-09 09:22:00,,0820.6,5.01,0.00,30.4,29.4,00.0,39.5,32.1,17.8,0000.0,0002.89,0006.01,0002.13
2021-10-09 09:23:00,,0820.6,5.00,0.00,30.4,29.4,00.0,39.5,32.1,17.7,0000.0,0002.93,0006.02,0002.15
2021-10-09 09:24:00,,0820.7,4.99,0.00,30.4,29.4,00.0,39.5,32.1,17.7,0000.0,0002.90,0005.95,0002.17
2021-10-09 09:25:00,,0820.7,5.00,0.00,30.4,29.4,00.0,39.5,32.1,17.7,0000.0,0002.83,0006.45,0002.17
2021-10-09 09:26:00,,0820.7,5.00,0.00,30.4,29.4,00.0,39.5,32.1,17.8,0000.0,0002.83,0006.57,0002.16
2021-10-09 09:27:00,,0820.6,5.01,0.00,30.4,29.4,00.0,39.5,32.1,17.7,0000.0,0002.82,0007.21,0002.14
2021-10-09 09:28:00,,0820.6,4.99,0.00,30.4,29.4,00.0,39.5,32.1,17.6,0000.0,0002.84,0007.73,0002.13
2021-10-09 09:29:00,,0820.6,5.00,0.00,30.4,29.3,00.0,39.5,32.0,17.7,0000.0,0002.87,0008.07,0002.16
2021-10-09 09:30:00,,0820.7,5.01,0.00,30.4,29.3,00.0,39.5,32.1,17.8,0000.0,0002.91,0008.12,0002.19
2021-10-09 09:31:00,,0820.6,4.99,0.00,30.4,29.3,00.0,39.5,32.0,17.7,0000.0,0002.91,0008.06,0002.19
2021-10-09 09:32:00,,0820.6,5.01,0.00,30.3,29.3,00.0,39.5,32.1,17.4,0000.0,0002.94,0007.78,0002.16
2021-10-09 09:33:00,,0820.6,4.99,0.00,30.4,29.4,00.0,39.5,32.0,17.6,0000.0,0002.93,0007.49,0002.13
2021-10-09 09:34:00,,0820.6,4.99,0.00,30.4,29.3,00.0,39.5,32.1,17.5,0000.0,0002.97,0007.53,0002.15
2021-10-09 09:35:00,,0820.6,5.00,0.00,30.3,29.3,00.0,39.5,32.0,17.5,0000.0,0003.03,0008.32,0002.19
2021-10-09 09:36:00,,0820.6,5.01,0.00,30.3,29.3,00.0,39.5,32.0,17.6,0000.0,0003.12,0008.92,0002.26
2021-10-09 09:37:00,,0820.6,4.99,0.00,30.3,29.3,00.0,39.5,32.0,17.5,0000.0,0003.14,0008.93,0002.28
2021-10-09 09:38:00,,0820.6,5.01,0.00,30.4,29.4,00.0,39.5,32.0,17.4,0000.0,0003.14,0009.37,0002.26
2021-10-09 09:39:00,,0820.6,5.00,0.00,30.3,29.4,00.0,39.5,32.0,17.4,0000.0,0003.14,0009.06,0002.25
2021-10-09 09:40:00,,0820.5,5.00,0.00,30.3,29.4,00.0,39.5,32.0,17.6,0000.0,0003.15,0008.87,0002.28
2021-10-09 09:41:00,,0820.4,5.00,0.00,30.4,29.4,00.0,39.5,32.0,17.6,0000.0,0003.20,0009.09,0002.33
2021-10-09 09:42:00,,0820.3,5.00,0.00,30.3,29.4,00.0,39.5,32.1,17.4,0000.0,0003.22,0009.14,0002.35
2021-10-09 09:43:00,,0820.3,4.99,0.00,30.3,29.4,00.0,39.5,32.1,17.3,0000.0,0003.18,0009.02,0002.34
2021-10-09 09:44:00,,0820.3,5.01,0.00,30.3,29.4,00.0,39.5,32.0,17.3,0000.0,0003.16,0008.99,0002.31
2021-10-09 09:45:00,,0820.3,5.01,0.00,30.3,29.3,00.0,39.5,32.0,17.2,0000.0,0003.13,0008.98,0002.27
2021-10-09 09:46:00,,0820.4,5.00,0.00,30.3,29.3,00.0,39.5,32.0,17.2,0000.0,0003.11,0008.30,0002.23
2021-10-09 09:47:00,,0820.4,5.00,0.00,30.3,29.3,00.0,39.5,32.0,17.1,0000.0,0003.03,0009.21,0002.15
2021-10-09 09:48:00,,0820.4,4.99,0.00,30.3,29.3,00.0,39.5,32.0,17.1,0000.0,0002.94,0009.28,0002.08
2021-10-09 09:49:00,,0820.4,5.00,0.00,30.3,29.3,00.0,39.5,32.0,17.0,0000.0,0002.83,0008.39,0002.02
2021-10-09 09:50:00,,0820.3,4.99,0.00,30.3,29.3,00.0,39.5,32.0,17.0,0000.0,0002.73,0008.37,0001.96
2021-10-09 09:51:00,,0820.3,5.01,0.00,30.3,29.3,00.0,39.5,32.0,17.0,0000.0,0002.56,0007.98,0001.84
2021-10-09 09:52:00,,0820.3,4.99,0.00,30.3,29.3,00.0,39.5,32.0,17.0,0000.0,0002.32,0007.94,0001.69
2021-10-09 09:53:00,,0820.2,4.99,0.00,30.3,29.3,00.0,39.5,32.0,16.9,0000.0,0002.14,0008.13,0001.57
2021-10-09 09:54:00,,0820.2,5.01,0.00,30.3,29.3,00.0,39.5,32.0,16.9,0000.0,0001.98,0007.95,0001.46
2021-10-09 09:55:00,,0820.2,5.00,0.00,30.3,29.3,00.0,39.5,32.0,16.9,0000.0,0001.86,0007.87,0001.36
2021-10-09 09:56:00,,0820.2,4.99,0.00,30.3,29.4,00.0,39.5,32.0,16.9,0000.0,0001.70,0007.72,0001.24
2021-10-09 09:57:00,,0820.2,5.01,0.00,30.3,29.4,00.0,39.5,32.0,16.9,0000.0,0001.53,0007.34,0001.13
2021-10-09 09:58:00,,0820.1,5.01,0.00,30.3,29.4,00.0,39.5,32.0,16.9,0000.0,0001.37,0004.03,0001.03
2021-10-09 09:59:00,,0820.0,5.00,0.00,30.3,29.4,00.0,39.5,32.0,16.9,0000.0,0001.22,0003.41,0000.94
